Location: Brantley
(31.5822°N, 86.2569°W)
Time: 21:38:20
(UTC+00:00)

Injun/Solrad 3 - Pass Details

Date: 17 February 2026
Orbit: 872 x 984 km, 66.8° (Epoch: 8 March)

Event Time Altitude Azimuth Distance (km) Brightness Sun altitude
Rises 15:56:02 0° 185° (S) 3,445 11.4 37.5°
Reaches altitude 10° 15:58:37 10° 179° (S) 2,508 11.0 37.9°
Maximum altitude 16:04:01 42° 109° (ESE) 1,223 10.0 38.6°
Drops below altitude 10° 16:09:28 10° 40° (NE) 2,539 10.2 39.3°
Sets 16:12:06 0° 34° (NE) 3,493 10.7 39.6°
